Simultaneous Nadir Overpasses (SNOs) Predictions

Prediction of SNOs between GOES-17 and METOP-C Satellite Orbit:

Table of predicted SNOs for the next 14.0 days since TLE Epoch: 11/2/2024
Index Date Time (GOES-17) GOES-17 Lat,Lon METOP-C Lat,Lon Distance(km) Time Diff (sec)
1 11/03/2024 16:30:38 0.02,-104.71 -0.02,-104.54 19.79 80
2 11/06/2024 04:26:18 -0.03,-104.64 0.10,-104.13 58.68 80
3 11/07/2024 16:45:08 0.04,-104.68 0.91,-108.69 455.88 80
4 11/08/2024 16:27:08 0.04,-104.68 -0.19,-103.69 113.26 80
5 11/10/2024 04:46:06 -0.04,-104.62 -0.88,-108.26 415.84 80
6 11/11/2024 04:22:46 -0.05,-104.61 0.23,-103.27 153.14 80
7 11/12/2024 16:41:36 0.05,-104.65 0.74,-107.83 361.35 80
8 11/13/2024 16:23:35 0.05,-104.65 -0.39,-102.83 208.09 80
9 11/15/2024 04:42:33 -0.04,-104.59 -0.69,-107.40 320.43 80
